Zurück zum Katalog

STARLINK-34088

AktivKommunikationVLEO
NORAD 64025·PAYLOAD·🇺🇸 United States

Gestartet May 16, 2025 von Vandenberg Space Force Base

Loading…

Nächste Überflüge (nächste 24 Stunden)

TLE

AktuellSource: CelesTrak SupGP

Epoche: Sep 15, 2026, 02:49 UTC

1 64025C 25102D   26258.11784722  .00089857  00000+0  31250-2 0  2589
2 64025  70.0009 355.1254 0003487 270.3934 303.4805 15.29541242    19

Verfolge STARLINK-34088 in Echtzeit mit AllMySat

Download on the App Store